RH
64 53 76 78 76 75 74 76 78 80 78 78 78 77 72 72 76 74 72 72 69 68 69 68 73 71 72 72 73 74 75 76 74 73 74 74 73 73 71 66 69 50 74
44 50 79 77 75 74 74 76 78 78 79 77 75 72 73 76 75 71 74 71 70 67 71 69 68 72 70 71 69 69 73 77 73 73 73 72 72 72 74 73 71 63 74
36 46 59 80 76 75 75 76 76 76 75 74 74 74 75 75 71 72 72 70 70 73 66 67 71 68 70 70 71 71 73 75 74 71 64 53 56 73 71 72 73 74 74
31 33 44 84 79 77 78 77 75 74 74 74 75 75 75 72 71 69 69 72 70 70 70 68 67 70 71 72 72 74 76 74 71 63 56 57 46 74 72 74 74 73 76
28 33 61 80 79 77 78 77 78 76 76 76 75 74 73 72 70 69 69 69 71 70 69 69 67 68 69 70 72 74 73 72 65 60 50 66 50 65 73 74 74 72 74
26 35 70 78 76 77 77 76 76 75 75 75 74 73 72 71 69 69 70 69 67 69 68 68 66 66 67 68 69 71 69 65 63 54 50 58 53 73 72 74 72 74 73
27 39 50 79 77 77 77 75 75 75 74 74 73 73 72 72 71 70 70 69 68 67 69 67 66 65 65 68 70 67 65 60 59 63 62 52 59 76 73 72 74 73 71
27 32 50 75 76 77 75 75 74 74 74 74 73 72 72 72 71 69 67 66 66 66 69 67 66 68 71 71 71 66 65 61 55 61 50 54 74 75 72 74 71 69 73
25 34 45 51 65 76 76 74 74 74 74 73 74 73 73 71 69 67 66 65 64 64 65 65 66 68 70 72 70 67 63 64 54 50 39 49 78 73 73 72 73 74 75
27 30 39 45 45 51 56 75 74 73 72 72 73 73 71 66 63 63 73 67 63 62 64 66 67 68 72 73 69 67 68 63 30 35 42 57 78 73 72 72 73 74 73
28 28 29 32 40 48 56 67 72 72 72 74 70 70 70 40 48 48 68 64 62 63 63 64 67 68 72 72 70 69 68 31 26 31 42 77 76 71 72 73 74 72 72
29 26 25 30 35 38 35 58 56 53 47 44 43 55 76 57 54 43 57 66 64 64 64 64 66 66 68 43 46 65 44 29 29 34 49 76 72 72 72 73 73 73 73
27 25 26 34 39 35 46 41 39 51 60 43 48 52 44 41 42 43 46 48 50 63 42 49 52 57 66 47 40 34 30 29 28 37 65 78 71 72 70 72 71 72 71
29 27 27 34 41 40 38 44 56 71 40 36 42 48 49 62 60 62 74 49 67 53 44 71 86 62 52 80 37 40 32 28 25 37 60 74 71 68 70 74 74 74 73
29 28 30 38 47 46 66 66 44 36 31 33 44 46 42 66 64 62 48 81 68 62 33 66 48 50 39 39 53 50 34 35 29 34 46 68 67 69 72 72 69 70 69
31 31 32 39 47 46 61 60 54 41 45 32 34 42 47 67 66 69 44 70 60 67 60 57 57 48 46 38 42 51 52 40 42 52 43 56 70 65 63 64 64 64 65
30 32 37 41 43 50 56 48 52 64 33 56 33 50 47 54 52 74 47 74 70 52 48 44 38 33 30 39 54 50 38 48 38 44 62 47 58 72 67 66 65 65 65
30 37 39 33 41 47 49 52 47 58 43 61 37 43 50 53 57 58 58 63 40 46 54 72 41 49 31 43 60 52 52 42 39 40 60 62 60 45 68 71 72 71 70
32 38 41 40 43 48 53 48 44 49 58 58 58 59 54 53 55 51 50 54 59 43 61 43 54 48 33 38 51 41 46 37 51 31 37 43 44 62 64 77 76 73 69
33 38 43 40 50 57 52 53 41 43 51 63 60 68 56 62 52 55 68 49 50 53 37 64 43 58 48 54 26 34 44 35 32 34 33 30 35 36 55 60 64 64 77
34 40 46 50 61 52 49 48 44 43 46 56 47 49 54 53 55 58 74 53 52 61 88 48 40 47 33 37 31 32 34 32 34 30 27 28 33 31 31 35 41 48 56
36 42 52 55 64 59 48 53 45 44 36 36 36 50 49 49 57 54 77 52 55 50 54 51 52 66 38 42 61 41 44 37 28 28 27 27 32 28 31 35 37 42 39
37 43 53 61 64 63 58 51 50 46 43 39 49 43 48 49 51 53 56 69 57 63 47 57 54 64 62 35 46 52 44 70 37 29 35 30 38 35 32 37 35 39 42
35 40 52 59 65 62 64 54 66 48 44 38 41 39 45 51 50 51 57 56 62 72 69 57 56 67 68 42 34 32 53 46 60 67 31 31 33 33 36 33 34 36 41
33 38 43 62 68 65 67 63 52 59 40 37 34 59 58 63 52 46 57 57 60 52 60 71 60 63 45 59 34 34 44 33 46 61 41 34 32 29 30 35 29 29 40
31 35 42 63 72 70 68 68 67 65 57 38 43 44 42 43 47 54 51 67 61 57 60 57 61 61 71 52 44 39 34 40 47 32 31 41 33 32 27 27 31 30 30
Wind_Speed
12 13 9 12 14 11 10 10 10 11 12 12 12 13 12 11 10 11 11 12 10 9 9 9 10 10 10 10 11 11 12 11 12 13 14 13 11 11 9 8 13 17 14
16 15 13 13 14 11 10 10 11 12 13 13 12 12 11 10 10 9 9 11 10 10 10 11 10 10 10 10 11 10 10 10 10 12 16 14 12 15 14 17 18 14 15
19 17 15 11 12 12 11 11 11 11 12 11 11 11 10 10 9 9 8 11 11 10 11 11 12 9 11 11 11 10 10 9 8 9 8 10 13 14 15 16 15 15 14
19 17 15 10 11 11 11 12 12 11 11 10 10 10 10 9 9 9 8 10 11 12 11 12 12 13 12 12 11 11 8 6 6 6 6 5 14 13 14 13 14 13 15
19 18 16 13 12 12 10 13 11 11 11 10 10 10 10 9 10 10 10 10 11 12 12 12 12 12 12 12 11 10 7 6 4 5 11 6 10 11 12 13 13 12 16
20 20 16 14 14 12 11 12 12 11 10 11 11 10 10 11 10 10 10 10 10 11 11 12 11 10 10 10 11 8 5 3 6 7 12 4 14 12 13 15 15 14 14
22 18 16 14 14 13 13 12 12 11 11 11 11 10 10 10 9 10 9 10 9 9 11 11 11 10 9 9 9 6 2 3 6 6 9 12 12 12 14 14 13 13 13
20 19 16 13 14 13 13 12 12 11 10 11 12 12 12 11 10 10 10 9 9 9 10 11 11 11 11 11 9 4 3 7 13 7 9 11 9 12 14 13 13 12 12
19 19 15 15 13 14 12 12 12 11 11 12 13 13 11 11 10 10 10 10 10 9 9 10 9 10 12 12 9 5 4 6 6 6 13 10 9 12 13 13 12 12 12
18 17 15 15 14 13 12 12 12 11 12 12 12 12 12 11 10 10 12 9 10 9 9 8 8 9 12 10 8 8 9 8 8 11 11 9 9 11 12 12 12 11 11
16 16 15 17 14 11 14 10 11 11 12 12 11 11 14 10 9 10 12 8 9 9 7 6 8 12 14 12 12 12 11 2 7 11 9 9 9 11 11 12 10 10 10
19 16 15 13 13 13 11 12 11 11 11 10 9 10 8 6 6 11 9 9 8 9 8 7 8 10 16 7 8 11 5 5 6 11 9 9 10 10 11 10 9 9 8
18 12 16 12 11 12 13 9 7 5 4 8 7 4 6 5 5 5 6 5 9 8 9 9 5 9 7 5 5 7 6 9 5 10 10 8 9 10 9 9 9 8 8
17 14 17 14 10 9 9 7 3 10 7 7 7 3 4 3 4 7 5 11 5 12 8 6 8 8 13 6 6 5 5 3 6 10 9 9 9 9 8 9 8 8 7
17 15 16 14 10 6 3 2 7 7 6 9 8 6 6 4 2 1 3 3 11 8 4 11 5 3 1 6 1 5 6 7 3 10 8 10 8 8 7 9 7 6 5
17 17 16 14 11 9 4 1 3 3 4 7 8 8 4 3 6 2 1 5 5 2 3 6 4 5 4 5 5 1 4 6 6 12 9 8 9 7 6 6 5 4 4
16 16 17 15 13 11 7 5 4 3 7 1 7 8 5 4 2 4 1 2 2 5 3 5 2 1 4 7 5 2 8 6 6 8 5 7 9 9 9 8 5 4 3
17 17 17 14 15 13 10 8 6 6 8 4 7 7 6 2 1 4 3 1 5 3 8 7 3 4 2 4 5 8 3 6 5 6 8 4 6 6 9 10 8 6 5
17 17 16 14 15 14 10 9 8 6 2 3 5 5 8 6 4 6 1 3 2 4 2 3 3 1 5 3 8 6 5 5 4 7 5 3 7 7 4 10 11 10 8
17 17 16 13 14 13 10 7 7 8 4 3 5 7 9 6 5 6 1 3 5 3 5 3 1 4 3 4 3 7 2 4 2 6 7 6 6 7 13 10 8 8 11
18 18 17 15 13 11 10 9 8 10 6 6 6 9 7 8 6 4 4 5 6 8 7 5 3 2 1 3 4 6 4 4 6 2 3 6 5 4 2 5 4 7 8
20 19 17 15 13 11 9 8 8 7 8 7 6 8 7 7 9 7 3 5 5 3 3 2 2 5 2 3 3 6 4 6 5 3 3 3 4 1 8 5 4 1 3
22 20 18 16 15 13 12 8 7 7 5 7 6 8 8 8 9 5 6 4 5 4 6 4 4 8 1 5 5 3 4 2 5 5 4 3 4 5 3 4 3 5 3
22 21 18 17 15 15 13 12 12 9 9 8 8 9 10 9 9 8 7 5 6 2 5 6 6 7 5 5 4 5 3 5 3 3 5 3 3 5 5 5 9 7 5
23 21 20 18 16 15 15 12 12 12 9 9 9 11 5 8 9 9 10 7 6 5 4 4 3 5 5 4 5 5 3 3 4 3 5 7 5 3 4 6 4 3 8
23 22 20 20 18 17 16 16 13 14 12 10 9 10 9 10 9 9 9 7 7 6 6 5 5 5 6 4 7 2 7 5 4 5 1 4 3 4 2 4 5 4 4
Wind_Direction
165 138 153 152 140 127 119 108 101 99 122 122 123 114 105 102 101 94 102 96 87 90 96 98 88 92 86 86 82 86 91 93 97 99 96 93 90 80 77 84 128 92 91
151 142 151 142 130 131 128 115 106 103 113 118 111 107 108 105 102 103 96 100 96 93 89 94 91 94 93 86 89 96 102 106 111 111 111 99 81 74 72 62 70 90 88
136 128 148 137 135 135 133 126 117 114 113 114 112 111 110 106 104 95 91 94 91 90 91 89 79 93 96 94 91 93 107 116 116 117 132 99 86 85 83 83 89 87 89
135 147 134 129 128 133 136 131 127 121 120 119 118 115 113 110 100 93 97 91 93 88 95 88 92 106 107 103 93 89 90 112 117 115 65 86 93 90 92 92 91 100 94
145 129 115 132 131 128 120 121 122 122 126 122 118 121 114 110 106 100 100 95 92 93 93 90 92 91 92 99 89 89 92 95 104 99 101 87 97 94 94 109 111 90 75
132 114 131 136 131 125 124 118 118 117 119 119 119 122 119 110 110 105 104 102 96 100 97 95 94 92 100 91 98 100 96 64 104 83 113 127 75 104 97 91 88 89 88
119 125 134 132 132 126 121 122 117 118 120 121 120 119 112 104 104 98 98 96 102 101 104 102 96 96 120 126 108 101 136 171 122 99 82 90 90 96 92 94 96 100 97
123 135 133 133 131 124 123 120 117 118 121 120 120 116 108 108 106 97 93 100 105 110 110 102 101 100 100 109 113 114 294 312 119 98 90 82 98 96 96 97 94 93 89
144 122 138 135 133 127 125 125 118 122 123 121 115 113 119 111 111 106 99 95 109 118 105 105 107 106 112 113 122 151 232 271 111 146 124 104 107 99 100 99 97 93 94
133 143 151 141 142 151 139 123 125 125 125 123 123 129 125 124 131 132 125 97 109 115 117 119 114 115 121 119 148 184 219 224 103 101 75 90 107 105 99 101 91 92 90
135 158 149 151 148 138 126 128 131 135 131 134 142 158 176 137 146 137 75 99 112 120 125 129 136 135 138 151 181 197 228 217 105 86 92 110 106 102 101 99 96 92 88
148 166 153 135 139 160 142 159 148 153 162 154 136 191 208 100 58 98 114 125 127 139 144 177 168 173 191 155 175 207 225 109 88 90 89 100 98 97 96 100 100 99 93
151 167 147 146 161 175 116 181 168 143 148 127 152 201 91 111 141 203 135 147 158 185 164 187 172 195 250 288 156 159 146 144 118 85 91 105 105 107 99 99 99 95 86
157 168 138 148 165 162 150 186 193 167 154 139 141 134 163 234 154 109 225 185 350 156 183 0 170 224 128 292 49 17 69 71 99 104 107 98 101 99 106 100 99 96 96
163 162 142 152 162 151 261 247 182 129 180 134 142 200 187 265 244 53 74 298 197 41 131 177 110 130 161 111 355 67 81 58 49 114 113 118 108 105 101 113 108 108 100
169 164 148 162 162 160 211 181 154 172 141 148 171 150 277 332 96 276 207 54 327 58 68 30 46 155 166 107 85 332 152 89 29 52 126 134 140 138 134 126 122 126 123
173 168 152 166 167 164 194 180 163 218 186 190 136 132 201 264 124 249 202 72 223 149 66 119 192 205 118 134 109 148 111 108 97 101 86 153 148 172 166 154 157 166 182
177 169 161 175 168 171 176 186 193 241 130 195 133 155 174 163 245 235 179 267 115 159 136 245 225 263 135 130 43 75 168 104 112 125 156 142 173 158 179 173 171 194 210
176 169 176 184 170 172 167 183 216 182 180 201 129 120 158 150 179 263 353 161 68 250 296 158 170 57 127 202 151 158 128 134 163 102 93 163 137 152 171 182 181 193 206
175 171 185 186 167 170 159 192 202 153 198 220 135 132 153 166 185 244 307 110 257 319 136 37 82 59 287 49 104 102 118 123 117 138 152 160 109 199 150 173 180 195 204
177 174 186 186 162 177 174 192 196 169 194 197 200 122 153 159 176 216 142 181 260 138 311 144 139 293 282 84 152 141 127 239 183 208 153 118 139 119 71 106 232 183 186
181 180 181 186 171 190 194 202 200 205 179 196 192 152 191 185 159 181 157 194 237 107 154 176 259 285 158 125 301 261 179 192 188 190 109 204 54 107 138 171 98 252 269
184 186 183 185 179 187 202 198 207 205 209 203 175 167 190 188 179 201 172 236 180 305 168 198 245 283 353 169 268 347 21 322 103 157 168 219 128 229 99 165 201 154 188
189 188 182 186 186 186 208 188 191 205 206 186 208 192 160 195 188 181 162 180 214 166 161 210 220 287 172 212 170 248 25 4 44 316 162 173 209 216 175 252 153 179 180
192 188 189 183 191 191 192 217 187 219 203 192 212 137 176 171 199 194 169 195 193 230 168 182 224 257 278 289 214 181 179 184 199 228 249 148 181 210 182 189 252 195 174
193 192 190 182 189 197 189 209 203 196 234 212 209 163 186 174 188 207 190 178 196 216 191 199 199 229 285 303 328 223 177 205 177 225 200 189 46 130 187 195 183 224 223